Weather History for KPLN - September, 2013

Change the Weather History Date:

Tuesday, September 10, 2013

  Actual Average Record
Temperature  
Mean Temperature 75 °F -  
Max Temperature 84 °F 69 °F 86 °F (1961)
Min Temperature 66 °F 47 °F 29 °F (1967)
Cooling Degree Days 10    
Growing Degree Days 25 (Base 50)    
Moisture  
Dew Point 66 °F    
Average Humidity 79    
Maximum Humidity 96    
Minimum Humidity 56    
Precipitation  
Precipitation 0.97 in - - ()
Sea Level Pressure  
Sea Level Pressure 29.84 in    
Wind  
Wind Speed 6 mph (West)    
Max Wind Speed 18 mph    
Max Gust Speed 28 mph    
Visibility 8 miles    
Events Rain , Thunderstorm    
Averages and records for this station are not official NWS values.
T = Trace of Precipitation, MM = Missing Value Source: NWS Daily Summary

Daily Weather History Graph

Daily Weather History Graph

Search for Another Location

Airport or City:

Trip Planner

Search our weather history database for the weather conditions in past years. The results will help you decide how hot, cold, wet, or windy it might be!

Date:

Astronomy

Sep. 10, 2013 Rise Set
Actual Time 7:11 AM EDT 7:59 PM EDT
Civil Twilight 6:41 AM EDT 8:29 PM EDT
Nautical Twilight 6:05 AM EDT 9:05 PM EDT
Astronomical Twilight 5:28 AM EDT 9:42 PM EDT
Moon 12:54 PM EDT (9/10) 10:43 PM EDT (9/10)
Length of Visible Light 13h 47m
Length of Day
12h 47m
Waxing Crescent, 28% of the Moon is Illuminated
Sep 10
Waxing Crescent
Sep 12
First Quarter
Sep 19
Full
Sep 26
Last Quarter
Oct 4
New

Hourly Weather History & Observations

Time (EDT) Temp. Heat Index Dew Point Humidity Pressure Visibility Wind Dir Wind Speed Gust Speed Precip Events Conditions
12:54 AM 66.0 °F - 64.9 °F 96% 29.72 in 6.0 mi Calm Calm - N/A   Clear
1:54 AM 75.9 °F - 70.0 °F 82% 29.73 in 9.0 mi WSW 6.9 mph - N/A   Mostly Cloudy
2:29 AM 68.0 °F - 66.2 °F 94% 29.76 in 9.0 mi NNE 6.9 mph 21.9 mph N/A   Mostly Cloudy
2:54 AM 68.0 °F - 64.9 °F 90% 29.76 in 9.0 mi NNE 3.5 mph - N/A   Clear
3:02 AM 66.2 °F - 64.4 °F 94% 29.76 in 8.0 mi Calm Calm - N/A   Partly Cloudy
3:54 AM 66.0 °F - 64.0 °F 93% 29.75 in 8.0 mi East 4.6 mph - N/A   Scattered Clouds
4:54 AM 66.9 °F - 64.9 °F 93% 29.76 in 6.0 mi South 4.6 mph - N/A   Partly Cloudy
5:54 AM 68.0 °F - 66.0 °F 93% 29.76 in 8.0 mi Calm Calm - N/A   Clear
6:54 AM 73.9 °F - 68.0 °F 82% 29.76 in 9.0 mi WSW 8.1 mph - N/A   Scattered Clouds
7:54 AM 73.9 °F - 66.9 °F 79% 29.78 in 9.0 mi West 6.9 mph - N/A   Clear
8:54 AM 77.0 °F - 66.9 °F 71% 29.79 in 10.0 mi West 6.9 mph - N/A   Clear
9:54 AM 80.1 °F 82.3 °F 66.9 °F 64% 29.79 in 10.0 mi SW 9.2 mph 17.3 mph N/A   Clear
10:54 AM 82.9 °F 85.4 °F 66.9 °F 58% 29.81 in 10.0 mi WSW 10.4 mph 20.7 mph N/A   Clear
11:54 AM 82.9 °F 85.0 °F 66.0 °F 56% 29.83 in 10.0 mi WSW 18.4 mph 27.6 mph N/A   Clear
12:54 PM 82.0 °F 84.1 °F 66.0 °F 58% 29.84 in 10.0 mi WSW 11.5 mph 23.0 mph N/A   Clear
1:54 PM 84.0 °F 86.5 °F 66.9 °F 56% 29.83 in 10.0 mi SW 13.8 mph 19.6 mph N/A   Clear
2:54 PM 82.9 °F 85.8 °F 68.0 °F 60% 29.83 in 10.0 mi WSW 11.5 mph 20.7 mph N/A   Clear
3:54 PM 84.0 °F 87.0 °F 68.0 °F 58% 29.83 in 10.0 mi West 12.7 mph 23.0 mph N/A   Clear
4:54 PM 82.0 °F 84.5 °F 66.9 °F 60% 29.85 in 10.0 mi West 13.8 mph 19.6 mph N/A   Scattered Clouds
5:54 PM 82.0 °F 84.5 °F 66.9 °F 60% 29.84 in 10.0 mi WSW 15.0 mph 25.3 mph N/A   Clear
6:54 PM 80.1 °F 82.3 °F 66.9 °F 64% 29.86 in 10.0 mi WSW 11.5 mph - N/A   Mostly Cloudy
7:54 PM 77.0 °F - 66.9 °F 71% 29.86 in 10.0 mi West 5.8 mph - N/A   Mostly Cloudy
8:49 PM 73.4 °F - 66.2 °F 78% 29.91 in 10.0 mi NW 9.2 mph - N/A   Mostly Cloudy
8:54 PM 73.0 °F - 66.9 °F 81% 29.90 in 10.0 mi NW 8.1 mph - N/A   Mostly Cloudy
9:35 PM 71.6 °F - 66.2 °F 83% 29.93 in 10.0 mi NNW 8.1 mph - 0.00 in Rain Light Rain
9:54 PM 71.1 °F - 66.0 °F 84% 29.93 in 10.0 mi NNW 9.2 mph - 0.01 in Rain Light Rain
10:29 PM 69.8 °F - 64.4 °F 83% 29.95 in 8.0 mi NW 9.2 mph - 0.02 in Rain , Thunderstorm Light Rain
10:41 PM 66.2 °F - 64.4 °F 94% 29.94 in 1.5 mi NW 11.5 mph - 0.31 in Rain , Thunderstorm Heavy Thunderstorms and Rain
10:54 PM 66.9 °F - 64.9 °F 93% 29.94 in 1.2 mi West 8.1 mph - 0.64 in Rain , Thunderstorm Heavy Thunderstorms and Rain
11:06 PM 66.2 °F - 64.4 °F 94% 29.95 in 2.0 mi WSW 4.6 mph - 0.14 in Rain , Thunderstorm Heavy Rain
11:13 PM 66.2 °F - 64.4 °F 94% 29.94 in 3.0 mi SW 4.6 mph - 0.16 in Rain Rain
11:54 PM 66.0 °F - 64.9 °F 96% 29.93 in 3.0 mi Calm Calm - 0.32 in Rain Rain